| time (UTC) | temp C | wind direction | speed KPH | gust KPH | rain 1hr cm | rain 24hr cm | rain mn cm | humidity % | barometer mb |
| 20260906004027 | 30 | 96 | 1.6 | 1.6 | 0.00 | 0.00 | 0.00 | 73 | 1014.3 |
| 20260906003522 | 30 | 98 | 0.0 | 0.0 | 0.00 | 0.00 | 0.00 | 73 | 1014.4 |
| 20260906003019 | 30 | 101 | 0.0 | 0.0 | 0.00 | 0.00 | 0.00 | 72 | 1014.2 |
| 20260906002513 | 31 | 106 | 0.0 | 0.0 | 0.00 | 0.00 | 0.00 | 70 | 1014.2 |
| 20260906002008 | 31 | 99 | 0.0 | 0.0 | 0.00 | 0.00 | 0.00 | 70 | 1013.8 |
| 20260906001504 | 31 | 58 | 0.0 | 0.0 | 0.00 | 0.00 | 0.00 | 69 | 1014.0 |
| 20260906000958 | 31 | 87 | 0.0 | 1.6 | 0.00 | 0.00 | 0.00 | 67 | 1014.0 |
| 20260906000455 | 32 | 55 | 0.0 | 0.0 | 0.00 | 0.00 | 0.00 | 66 | 1014.1 |
| 20260905235953 | 32 | 87 | 1.6 | 3.2 | 0.00 | 0.00 | 0.00 | 65 | 1014.2 |
| 20260905235448 | 32 | 79 | 0.0 | 1.6 | 0.00 | 0.00 | 0.00 | 65 | 1014.0 |
| 20260905234943 | 32 | 53 | 1.6 | 1.6 | 0.00 | 0.00 | 0.00 | 64 | 1014.1 |
| 20260905234438 | 33 | 122 | 1.6 | 3.2 | 0.00 | 0.00 | 0.00 | 63 | 1014.2 |
| 20260905233932 | 33 | 127 | 1.6 | 3.2 | 0.00 | 0.00 | 0.00 | 62 | 1014.1 |
| 20260905233428 | 33 | 67 | 1.6 | 1.6 | 0.00 | 0.00 | 0.00 | 61 | 1014.1 |
| 20260905232927 | 33 | 54 | 4.8 | 6.4 | 0.00 | 0.00 | 0.00 | 61 | 1014.0 |
| 20260905232423 | 33 | 53 | 3.2 | 3.2 | 0.00 | 0.00 | 0.00 | 61 | 1014.0 |
| 20260905231918 | 33 | 62 | 4.8 | 4.8 | 0.00 | 0.00 | 0.00 | 61 | 1014.0 |
| 20260905231414 | 34 | 30 | 1.6 | 3.2 | 0.00 | 0.00 | 0.00 | 60 | 1014.0 |
| 20260905230911 | 34 | 71 | 3.2 | 4.8 | 0.00 | 0.00 | 0.00 | 59 | 1013.8 |
| 20260905230408 | 35 | 350 | 4.8 | 6.4 | 0.00 | 0.00 | 0.00 | 57 | 1014.0 |
| 20260905225901 | 35 | 32 | 1.6 | 1.6 | 0.00 | 0.00 | 0.00 | 57 | 1013.9 |
| 20260905225356 | 35 | 134 | 4.8 | 6.4 | 0.00 | 0.00 | 0.00 | 57 | 1013.9 |
| 20260905224851 | 35 | 359 | 3.2 | 4.8 | 0.00 | 0.00 | 0.00 | 56 | 1013.9 |
| 20260905224341 | 35 | 56 | 3.2 | 3.2 | 0.00 | 0.00 | 0.00 | 56 | 1013.9 |
| 20260905223835 | 35 | 22 | 4.8 | 4.8 | 0.00 | 0.00 | 0.00 | 56 | 1013.8 |
| 20260905223333 | 35 | 136 | 3.2 | 3.2 | 0.00 | 0.00 | 0.00 | 57 | 1013.7 |
| 20260905222828 | 35 | 104 | 3.2 | 4.8 | 0.00 | 0.00 | 0.00 | 56 | 1013.6 |
| 20260905222327 | 35 | 35 | 3.2 | 3.2 | 0.00 | 0.00 | 0.00 | 56 | 1013.7 |
| 20260905221823 | 35 | 16 | 1.6 | 3.2 | 0.00 | 0.00 | 0.00 | 56 | 1013.7 |
| 20260905221320 | 35 | 159 | 1.6 | 3.2 | 0.00 | 0.00 | 0.00 | 56 | 1013.6 |
| 20260905220815 | 35 | 349 | 3.2 | 3.2 | 0.00 | 0.00 | 0.00 | 56 | 1013.7 |
| 20260905220311 | 35 | 20 | 3.2 | 4.8 | 0.00 | 0.00 | 0.00 | 53 | 1013.7 |
| 20260905215810 | 36 | 83 | 3.2 | 4.8 | 0.00 | 0.00 | 0.00 | 51 | 1013.6 |
| 20260905215306 | 35 | 86 | 1.6 | 3.2 | 0.00 | 0.00 | 0.00 | 50 | 1013.6 |
| 20260905214802 | 36 | 60 | 3.2 | 3.2 | 0.00 | 0.00 | 0.00 | 52 | 1013.9 |
| 20260905214258 | 36 | 339 | 3.2 | 3.2 | 0.00 | 0.00 | 0.00 | 50 | 1013.7 |
| 20260905213753 | 35 | 339 | 3.2 | 3.2 | 0.00 | 0.00 | 0.00 | 51 | 1013.9 |
| 20260905213249 | 35 | 358 | 3.2 | 4.8 | 0.00 | 0.00 | 0.00 | 51 | 1013.9 |
| 20260905212743 | 36 | 5 | 3.2 | 4.8 | 0.00 | 0.00 | 0.00 | 49 | 1013.7 |
| 20260905212238 | 36 | 21 | 4.8 | 6.4 | 0.00 | 0.00 | 0.00 | 48 | 1013.9 |
| 20260905211737 | 36 | 342 | 4.8 | 4.8 | 0.00 | 0.00 | 0.00 | 49 | 1014.0 |
| 20260905211233 | 36 | 92 | 3.2 | 4.8 | 0.00 | 0.00 | 0.00 | 50 | 1014.0 |
| 20260905210729 | 36 | 244 | 3.2 | 3.2 | 0.00 | 0.00 | 0.00 | 49 | 1014.0 |
| 20260905210229 | 36 | 13 | 3.2 | 3.2 | 0.00 | 0.00 | 0.00 | 48 | 1013.7 |
| 20260905205728 | 36 | 54 | 4.8 | 4.8 | 0.00 | 0.00 | 0.00 | 48 | 1014.0 |
| 20260905205222 | 36 | 25 | 0.0 | 1.6 | 0.00 | 0.00 | 0.00 | 48 | 1013.7 |
| 20260905204716 | 36 | 316 | 3.2 | 3.2 | 0.00 | 0.00 | 0.00 | 47 | 1014.0 |
| 20260905204212 | 36 | 352 | 3.2 | 4.8 | 0.00 | 0.00 | 0.00 | 48 | 1013.9 |
| 20260905203706 | 37 | 22 | 6.4 | 9.7 | 0.00 | 0.00 | 0.00 | 48 | 1013.9 |
| 20260905203202 | 36 | 32 | 3.2 | 3.2 | 0.00 | 0.00 | 0.00 | 48 | 1013.8 |
| 20260905202657 | 36 | 355 | 4.8 | 4.8 | 0.00 | 0.00 | 0.00 | 50 | 1013.9 |
| 20260905202152 | 36 | 33 | 1.6 | 3.2 | 0.00 | 0.00 | 0.00 | 49 | 1014.1 |
| 20260905201648 | 37 | 123 | 1.6 | 3.2 | 0.00 | 0.00 | 0.00 | 48 | 1014.2 |
| 20260905201147 | 37 | 2 | 6.4 | 9.7 | 0.00 | 0.00 | 0.00 | 47 | 1014.2 |
| 20260905200643 | 37 | 256 | 9.7 | 11.3 | 0.00 | 0.00 | 0.00 | 47 | 1014.3 |
| 20260905200138 | 36 | 261 | 6.4 | 11.3 | 0.00 | 0.00 | 0.00 | 48 | 1014.2 |
| 20260905195636 | 37 | 347 | 4.8 | 6.4 | 0.00 | 0.00 | 0.00 | 48 | 1014.3 |
| 20260905195131 | 37 | 1 | 1.6 | 1.6 | 0.00 | 0.00 | 0.00 | 47 | 1014.1 |
| 20260905194626 | 37 | 230 | 3.2 | 3.2 | 0.00 | 0.00 | 0.00 | 48 | 1014.2 |
| 20260905194126 | 36 | 69 | 3.2 | 3.2 | 0.00 | 0.00 | 0.00 | 50 | 1014.3 |
| 20260905193621 | 37 | 306 | 4.8 | 6.4 | 0.00 | 0.00 | 0.00 | 48 | 1014.2 |
| 20260905193116 | 36 | 153 | 3.2 | 4.8 | 0.00 | 0.00 | 0.00 | 49 | 1014.2 |
| 20260905192612 | 36 | 150 | 1.6 | 1.6 | 0.00 | 0.00 | 0.00 | 51 | 1014.4 |
| 20260905192107 | 36 | 240 | 3.2 | 3.2 | 0.00 | 0.00 | 0.00 | 49 | 1014.4 |
| 20260905191606 | 36 | 334 | 9.7 | 12.9 | 0.00 | 0.00 | 0.00 | 50 | 1014.6 |
| 20260905191105 | 35 | 113 | 0.0 | 0.0 | 0.00 | 0.00 | 0.00 | 52 | 1014.5 |
| 20260905190603 | 36 | 346 | 4.8 | 6.4 | 0.00 | 0.00 | 0.00 | 51 | 1014.5 |
| 20260905185601 | 37 | 339 | 3.2 | 4.8 | 0.00 | 0.00 | 0.00 | 49 | 1014.6 |
| 20260905185056 | 36 | 275 | 8.0 | 11.3 | 0.00 | 0.00 | 0.00 | 50 | 1014.8 |
| 20260905184551 | 36 | 232 | 3.2 | 4.8 | 0.00 | 0.00 | 0.00 | 50 | 1014.9 |
| 20260905184049 | 36 | 336 | 3.2 | 4.8 | 0.00 | 0.00 | 0.00 | 50 | 1014.9 |
| 20260905183543 | 36 | 58 | 0.0 | 1.6 | 0.00 | 0.00 | 0.00 | 50 | 1014.9 |
| 20260905183038 | 36 | 354 | 3.2 | 4.8 | 0.00 | 0.00 | 0.00 | 49 | 1015.1 |
| 20260905182532 | 36 | 1 | 4.8 | 6.4 | 0.00 | 0.00 | 0.00 | 49 | 1015.2 |
| 20260905182026 | 36 | 92 | 1.6 | 1.6 | 0.00 | 0.00 | 0.00 | 50 | 1015.0 |
| 20260905181521 | 36 | 171 | 3.2 | 3.2 | 0.00 | 0.00 | 0.00 | 49 | 1015.0 |
| 20260905181020 | 37 | 60 | 1.6 | 3.2 | 0.00 | 0.00 | 0.00 | 48 | 1015.1 |
| 20260905180515 | 36 | 216 | 1.6 | 3.2 | 0.00 | 0.00 | 0.00 | 48 | 1015.3 |
| 20260905180011 | 36 | 344 | 4.8 | 6.4 | 0.00 | 0.00 | 0.00 | 49 | 1015.2 |
| 20260905175510 | 36 | 37 | 11.3 | 14.5 | 0.00 | 0.00 | 0.00 | 49 | 1015.3 |
| 20260905175006 | 36 | 344 | 3.2 | 3.2 | 0.00 | 0.00 | 0.00 | 49 | 1015.2 |
| 20260905174501 | 36 | 313 | 4.8 | 4.8 | 0.00 | 0.00 | 0.00 | 48 | 1015.3 |
| 20260905173957 | 36 | 293 | 3.2 | 4.8 | 0.00 | 0.00 | 0.00 | 49 | 1015.4 |
| 20260905173453 | 36 | 339 | 3.2 | 3.2 | 0.00 | 0.00 | 0.00 | 49 | 1015.3 |
| 20260905172948 | 36 | 16 | 4.8 | 6.4 | 0.00 | 0.00 | 0.00 | 48 | 1015.2 |
| 20260905172446 | 36 | 8 | 3.2 | 3.2 | 0.00 | 0.00 | 0.00 | 50 | 1015.5 |
| 20260905171942 | 35 | 61 | 3.2 | 3.2 | 0.00 | 0.00 | 0.00 | 51 | 1015.5 |
| 20260905171438 | 36 | 45 | 4.8 | 4.8 | 0.00 | 0.00 | 0.00 | 50 | 1015.5 |
| 20260905170934 | 36 | 322 | 4.8 | 6.4 | 0.00 | 0.00 | 0.00 | 51 | 1015.7 |
| 20260905170430 | 36 | 324 | 1.6 | 3.2 | 0.00 | 0.00 | 0.00 | 52 | 1015.6 |
| 20260905165929 | 35 | 342 | 3.2 | 3.2 | 0.00 | 0.00 | 0.00 | 53 | 1015.6 |
| 20260905165425 | 36 | 46 | 1.6 | 1.6 | 0.00 | 0.00 | 0.00 | 51 | 1015.5 |
| 20260905164920 | 36 | 82 | 0.0 | 0.0 | 0.00 | 0.00 | 0.00 | 51 | 1015.7 |
| 20260905164414 | 35 | 61 | 4.8 | 6.4 | 0.00 | 0.00 | 0.00 | 52 | 1015.7 |
| 20260905163909 | 35 | 304 | 3.2 | 4.8 | 0.00 | 0.00 | 0.00 | 51 | 1015.7 |
| 20260905163406 | 35 | 83 | 3.2 | 3.2 | 0.00 | 0.00 | 0.00 | 53 | 1015.7 |
| 20260905162902 | 36 | 100 | 0.0 | 1.6 | 0.00 | 0.00 | 0.00 | 52 | 1015.7 |
| 20260905162402 | 36 | 49 | 3.2 | 4.8 | 0.00 | 0.00 | 0.00 | 51 | 1016.0 |
| 20260905161856 | 35 | 128 | 1.6 | 1.6 | 0.00 | 0.00 | 0.00 | 53 | 1015.9 |
| 20260905161355 | 35 | 251 | 3.2 | 4.8 | 0.00 | 0.00 | 0.00 | 54 | 1015.8 |
| 20260905160854 | 35 | 158 | 1.6 | 1.6 | 0.00 | 0.00 | 0.00 | 54 | 1015.9 |
| 20260905160348 | 35 | 229 | 3.2 | 3.2 | 0.00 | 0.00 | 0.00 | 54 | 1015.9 |
| 20260905155843 | 35 | 315 | 1.6 | 3.2 | 0.00 | 0.00 | 0.00 | 54 | 1015.9 |
| 20260905155343 | 34 | 217 | 4.8 | 4.8 | 0.00 | 0.00 | 0.00 | 56 | 1015.6 |
| 20260905154842 | 34 | 246 | 6.4 | 6.4 | 0.00 | 0.00 | 0.00 | 56 | 1016.0 |
| 20260905154337 | 34 | 203 | 3.2 | 3.2 | 0.00 | 0.00 | 0.00 | 56 | 1015.9 |
| 20260905153833 | 33 | 126 | 0.0 | 1.6 | 0.00 | 0.00 | 0.00 | 56 | 1015.7 |
| 20260905153330 | 33 | 221 | 4.8 | 6.4 | 0.00 | 0.00 | 0.00 | 57 | 1016.0 |
| 20260905152824 | 33 | 72 | 1.6 | 1.6 | 0.00 | 0.00 | 0.00 | 57 | 1015.8 |
| 20260905152323 | 33 | 273 | 3.2 | 4.8 | 0.00 | 0.00 | 0.00 | 58 | 1015.9 |
| 20260905151818 | 33 | 242 | 3.2 | 3.2 | 0.00 | 0.00 | 0.00 | 57 | 1015.8 |
| 20260905151313 | 33 | 211 | 1.6 | 1.6 | 0.00 | 0.00 | 0.00 | 59 | 1015.8 |
| 20260905150808 | 33 | 223 | 3.2 | 3.2 | 0.00 | 0.00 | 0.00 | 58 | 1015.7 |
| 20260905150307 | 32 | 119 | 0.0 | 1.6 | 0.00 | 0.00 | 0.00 | 61 | 1015.8 |
| 20260905145804 | 32 | 67 | 1.6 | 3.2 | 0.00 | 0.00 | 0.00 | 60 | 1015.9 |
| 20260905145259 | 32 | 264 | 4.8 | 6.4 | 0.00 | 0.00 | 0.00 | 59 | 1015.9 |
| 20260905144758 | 32 | 333 | 1.6 | 1.6 | 0.00 | 0.00 | 0.00 | 61 | 1015.9 |
| 20260905144254 | 31 | 241 | 4.8 | 4.8 | 0.00 | 0.00 | 0.00 | 59 | 1015.7 |
| 20260905143752 | 31 | 256 | 6.4 | 6.4 | 0.00 | 0.00 | 0.00 | 61 | 1015.8 |
| 20260905143247 | 31 | 244 | 6.4 | 9.7 | 0.00 | 0.00 | 0.00 | 62 | 1015.9 |
| 20260905142745 | 31 | 237 | 3.2 | 4.8 | 0.00 | 0.00 | 0.00 | 65 | 1015.9 |
| 20260905142240 | 31 | 252 | 4.8 | 4.8 | 0.00 | 0.00 | 0.00 | 64 | 1015.8 |
| 20260905141736 | 31 | 238 | 4.8 | 4.8 | 0.00 | 0.00 | 0.00 | 65 | 1016.0 |
| 20260905141232 | 30 | 192 | 3.2 | 3.2 | 0.00 | 0.00 | 0.00 | 66 | 1015.9 |
| 20260905140727 | 31 | 219 | 3.2 | 3.2 | 0.00 | 0.00 | 0.00 | 64 | 1015.9 |
| 20260905140221 | 31 | 183 | 1.6 | 1.6 | 0.00 | 0.00 | 0.00 | 67 | 1015.9 |
| 20260905135721 | 30 | 151 | 1.6 | 3.2 | 0.00 | 0.00 | 0.00 | 69 | 1015.8 |
| 20260905135217 | 30 | 221 | 1.6 | 3.2 | 0.00 | 0.00 | 0.00 | 70 | 1016.0 |
| 20260905134716 | 29 | 152 | 1.6 | 3.2 | 0.00 | 0.00 | 0.00 | 71 | 1015.9 |
| 20260905134215 | 28 | 147 | 1.6 | 1.6 | 0.00 | 0.00 | 0.00 | 74 | 1016.0 |
| 20260905133711 | 28 | 179 | 3.2 | 3.2 | 0.00 | 0.00 | 0.00 | 74 | 1016.0 |
| 20260905133211 | 28 | 152 | 1.6 | 1.6 | 0.00 | 0.00 | 0.00 | 76 | 1016.2 |
| 20260905132709 | 27 | 163 | 3.2 | 3.2 | 0.00 | 0.00 | 0.00 | 77 | 1016.0 |
| 20260905132205 | 27 | 197 | 3.2 | 3.2 | 0.00 | 0.00 | 0.00 | 80 | 1015.9 |
| 20260905131700 | 26 | 180 | 1.6 | 3.2 | 0.00 | 0.00 | 0.00 | 80 | 1015.9 |
| 20260905131155 | 26 | 167 | 1.6 | 1.6 | 0.00 | 0.00 | 0.00 | 83 | 1016.1 |
| 20260905130650 | 25 | 197 | 3.2 | 3.2 | 0.00 | 0.00 | 0.00 | 84 | 1016.1 |
| 20260905130149 | 25 | 193 | 1.6 | 1.6 | 0.00 | 0.00 | 0.00 | 85 | 1016.0 |
| 20260905125644 | 25 | 144 | 0.0 | 0.0 | 0.00 | 0.00 | 0.00 | 87 | 1015.9 |
| 20260905125140 | 24 | 142 | 0.0 | 0.0 | 0.00 | 0.00 | 0.00 | 89 | 1015.9 |
| 20260905124636 | 23 | 141 | 0.0 | 0.0 | 0.00 | 0.00 | 0.00 | 89 | 1015.8 |
| 20260905124132 | 23 | 141 | 0.0 | 0.0 | 0.00 | 0.00 | 0.00 | 90 | 1015.7 |
| 20260905123627 | 23 | 142 | 0.0 | 1.6 | 0.00 | 0.00 | 0.00 | 91 | 1015.6 |
| 20260905123124 | 23 | 131 | 0.0 | 0.0 | 0.00 | 0.00 | 0.00 | 91 | 1015.8 |
| 20260905122618 | 23 | 136 | 1.6 | 1.6 | 0.00 | 0.00 | 0.00 | 91 | 1015.7 |
| 20260905122113 | 22 | 154 | 1.6 | 3.2 | 0.00 | 0.00 | 0.00 | 91 | 1015.6 |
| 20260905121608 | 22 | 139 | 1.6 | 3.2 | 0.00 | 0.00 | 0.00 | 91 | 1015.5 |
| 20260905121103 | 22 | 144 | 0.0 | 0.0 | 0.00 | 0.00 | 0.00 | 92 | 1015.5 |
| 20260905120602 | 22 | 129 | 0.0 | 0.0 | 0.00 | 0.00 | 0.00 | 92 | 1015.5 |
| 20260905120057 | 22 | 115 | 0.0 | 0.0 | 0.00 | 0.00 | 0.00 | 92 | 1015.5 |
| 20260905115556 | 22 | 131 | 0.0 | 0.0 | 0.00 | 0.00 | 0.00 | 93 | 1015.4 |
| 20260905115051 | 22 | 127 | 1.6 | 1.6 | 0.00 | 0.00 | 0.00 | 92 | 1015.2 |
| 20260905114551 | 22 | 116 | 0.0 | 0.0 | 0.00 | 0.00 | 0.00 | 93 | 1015.1 |
| 20260905114049 | 22 | 127 | 1.6 | 1.6 | 0.00 | 0.00 | 0.00 | 92 | 1015.4 |
| 20260905113544 | 22 | 128 | 0.0 | 1.6 | 0.00 | 0.00 | 0.00 | 92 | 1015.2 |
| 20260905113039 | 22 | 131 | 0.0 | 0.0 | 0.00 | 0.00 | 0.00 | 92 | 1015.3 |
| 20260905112534 | 22 | 132 | 0.0 | 0.0 | 0.00 | 0.00 | 0.00 | 91 | 1015.3 |
| 20260905112030 | 22 | 131 | 0.0 | 0.0 | 0.00 | 0.00 | 0.00 | 91 | 1015.4 |
| 20260905111525 | 23 | 128 | 0.0 | 0.0 | 0.00 | 0.00 | 0.00 | 90 | 1015.2 |
| 20260905111025 | 23 | 106 | 0.0 | 0.0 | 0.00 | 0.00 | 0.00 | 90 | 1015.0 |
| 20260905110523 | 23 | 98 | 0.0 | 0.0 | 0.00 | 0.00 | 0.00 | 90 | 1015.3 |
| 20260905110018 | 23 | 92 | 0.0 | 0.0 | 0.00 | 0.00 | 0.00 | 90 | 1015.2 |
| 20260905105513 | 23 | 98 | 0.0 | 0.0 | 0.00 | 0.00 | 0.00 | 90 | 1015.2 |
| 20260905105007 | 23 | 91 | 0.0 | 0.0 | 0.00 | 0.00 | 0.00 | 90 | 1015.1 |
| 20260905104503 | 23 | 100 | 0.0 | 0.0 | 0.00 | 0.00 | 0.00 | 89 | 1015.1 |
| 20260905103957 | 23 | 141 | 0.0 | 0.0 | 0.00 | 0.00 | 0.00 | 89 | 1015.2 |
| 20260905103452 | 23 | 142 | 0.0 | 0.0 | 0.00 | 0.00 | 0.00 | 89 | 1015.2 |
| 20260905102949 | 23 | 151 | 0.0 | 0.0 | 0.00 | 0.00 | 0.00 | 89 | 1015.1 |
| 20260905102444 | 23 | 150 | 0.0 | 0.0 | 0.00 | 0.00 | 0.00 | 89 | 1015.2 |
| 20260905101939 | 23 | 158 | 0.0 | 0.0 | 0.00 | 0.00 | 0.00 | 88 | 1015.0 |
| 20260905101438 | 23 | 221 | 1.6 | 1.6 | 0.00 | 0.00 | 0.00 | 89 | 1015.0 |
| 20260905100938 | 23 | 197 | 1.6 | 1.6 | 0.00 | 0.00 | 0.00 | 90 | 1015.2 |
| 20260905100433 | 23 | 194 | 0.0 | 0.0 | 0.00 | 0.00 | 0.00 | 89 | 1015.0 |
| 20260905095932 | 23 | 172 | 0.0 | 0.0 | 0.00 | 0.00 | 0.00 | 89 | 1015.0 |
| 20260905095432 | 23 | 181 | 1.6 | 3.2 | 0.00 | 0.00 | 0.00 | 89 | 1015.1 |
| 20260905094927 | 23 | 234 | 1.6 | 3.2 | 0.00 | 0.00 | 0.00 | 90 | 1015.1 |
| 20260905094423 | 23 | 179 | 0.0 | 0.0 | 0.00 | 0.00 | 0.00 | 90 | 1015.1 |
| 20260905093922 | 23 | 182 | 0.0 | 1.6 | 0.00 | 0.00 | 0.00 | 90 | 1015.1 |
| 20260905093417 | 23 | 240 | 3.2 | 3.2 | 0.00 | 0.00 | 0.00 | 88 | 1015.1 |
| 20260905092913 | 23 | 174 | 1.6 | 1.6 | 0.00 | 0.00 | 0.00 | 88 | 1015.1 |
| 20260905092408 | 23 | 216 | 1.6 | 3.2 | 0.00 | 0.00 | 0.00 | 87 | 1015.1 |
| 20260905091903 | 23 | 158 | 0.0 | 0.0 | 0.00 | 0.00 | 0.00 | 87 | 1015.2 |
| 20260905091402 | 23 | 151 | 0.0 | 0.0 | 0.00 | 0.00 | 0.00 | 86 | 1015.2 |
| 20260905090901 | 24 | 190 | 1.6 | 1.6 | 0.00 | 0.00 | 0.00 | 85 | 1015.1 |
| 20260905090357 | 24 | 202 | 1.6 | 3.2 | 0.00 | 0.00 | 0.00 | 85 | 1015.2 |
| 20260905085856 | 25 | 238 | 1.6 | 1.6 | 0.00 | 0.00 | 0.00 | 84 | 1015.2 |
| 20260905085351 | 25 | 257 | 3.2 | 3.2 | 0.00 | 0.00 | 0.00 | 84 | 1015.1 |
| 20260905084848 | 25 | 247 | 1.6 | 3.2 | 0.00 | 0.00 | 0.00 | 84 | 1015.1 |
| 20260905084346 | 25 | 240 | 3.2 | 3.2 | 0.00 | 0.00 | 0.00 | 83 | 1015.2 |
| 20260905083841 | 25 | 253 | 3.2 | 4.8 | 0.00 | 0.00 | 0.00 | 82 | 1015.2 |
| 20260905083337 | 25 | 241 | 1.6 | 1.6 | 0.00 | 0.00 | 0.00 | 82 | 1015.3 |
| 20260905082832 | 25 | 256 | 1.6 | 3.2 | 0.00 | 0.00 | 0.00 | 81 | 1015.3 |
| 20260905082328 | 25 | 245 | 1.6 | 1.6 | 0.00 | 0.00 | 0.00 | 81 | 1015.3 |
| 20260905081823 | 25 | 235 | 1.6 | 1.6 | 0.00 | 0.00 | 0.00 | 81 | 1015.5 |
| 20260905081318 | 25 | 267 | 3.2 | 3.2 | 0.00 | 0.00 | 0.00 | 80 | 1015.3 |
| 20260905080817 | 25 | 279 | 3.2 | 4.8 | 0.00 | 0.00 | 0.00 | 81 | 1015.4 |
| 20260905080312 | 25 | 249 | 3.2 | 3.2 | 0.00 | 0.00 | 0.00 | 81 | 1015.4 |
| 20260905075810 | 25 | 275 | 4.8 | 4.8 | 0.00 | 0.00 | 0.00 | 81 | 1015.3 |
| 20260905075306 | 25 | 296 | 1.6 | 1.6 | 0.00 | 0.00 | 0.00 | 82 | 1015.4 |
| 20260905074803 | 25 | 253 | 1.6 | 1.6 | 0.00 | 0.00 | 0.00 | 82 | 1015.4 |
| 20260905074300 | 25 | 322 | 1.6 | 1.6 | 0.00 | 0.00 | 0.00 | 83 | 1015.5 |
| 20260905073754 | 25 | 279 | 3.2 | 3.2 | 0.00 | 0.00 | 0.00 | 84 | 1015.3 |
| 20260905073249 | 25 | 344 | 1.6 | 1.6 | 0.00 | 0.00 | 0.00 | 84 | 1015.4 |
| 20260905072744 | 24 | 266 | 1.6 | 3.2 | 0.00 | 0.00 | 0.00 | 86 | 1015.6 |
| 20260905072239 | 24 | 109 | 0.0 | 0.0 | 0.00 | 0.00 | 0.00 | 86 | 1015.4 |
| 20260905071736 | 24 | 277 | 1.6 | 1.6 | 0.00 | 0.00 | 0.00 | 87 | 1015.3 |
| 20260905071232 | 23 | 240 | 0.0 | 0.0 | 0.00 | 0.00 | 0.00 | 88 | 1015.1 |
| 20260905070727 | 23 | 163 | 0.0 | 0.0 | 0.00 | 0.00 | 0.00 | 89 | 1015.4 |
| 20260905070223 | 23 | 115 | 0.0 | 0.0 | 0.00 | 0.00 | 0.00 | 88 | 1015.4 |
| 20260905065721 | 23 | 113 | 0.0 | 0.0 | 0.00 | 0.00 | 0.00 | 88 | 1015.3 |
| 20260905065215 | 23 | 132 | 0.0 | 0.0 | 0.00 | 0.00 | 0.00 | 88 | 1015.3 |
| 20260905064711 | 24 | 101 | 0.0 | 0.0 | 0.00 | 0.00 | 0.00 | 88 | 1015.3 |
| 20260905064207 | 24 | 101 | 0.0 | 0.0 | 0.00 | 0.00 | 0.00 | 87 | 1015.3 |
| 20260905063704 | 24 | 101 | 0.0 | 0.0 | 0.00 | 0.00 | 0.00 | 87 | 1015.4 |
| 20260905063201 | 24 | 98 | 0.0 | 0.0 | 0.00 | 0.00 | 0.00 | 87 | 1015.3 |
| 20260905062656 | 24 | 90 | 0.0 | 0.0 | 0.00 | 0.00 | 0.00 | 88 | 1015.3 |
| 20260905062155 | 24 | 107 | 0.0 | 0.0 | 0.00 | 0.00 | 0.00 | 87 | 1015.5 |
| 20260905061650 | 24 | 107 | 0.0 | 0.0 | 0.00 | 0.00 | 0.00 | 87 | 1015.5 |
| 20260905061144 | 24 | 100 | 0.0 | 0.0 | 0.00 | 0.00 | 0.00 | 87 | 1015.4 |
| 20260905060640 | 24 | 128 | 0.0 | 0.0 | 0.00 | 0.00 | 0.00 | 87 | 1015.5 |
| 20260905060136 | 24 | 130 | 0.0 | 0.0 | 0.00 | 0.00 | 0.00 | 87 | 1015.3 |
| 20260905055635 | 24 | 131 | 0.0 | 0.0 | 0.00 | 0.00 | 0.00 | 87 | 1015.4 |
| 20260905055130 | 24 | 116 | 0.0 | 0.0 | 0.00 | 0.00 | 0.00 | 87 | 1015.4 |
| 20260905054626 | 24 | 118 | 0.0 | 0.0 | 0.00 | 0.00 | 0.00 | 87 | 1015.4 |
| 20260905054121 | 25 | 148 | 0.0 | 0.0 | 0.00 | 0.00 | 0.00 | 87 | 1015.4 |
| 20260905053620 | 25 | 143 | 0.0 | 0.0 | 0.00 | 0.00 | 0.00 | 86 | 1015.6 |
| 20260905053115 | 25 | 103 | 0.0 | 0.0 | 0.00 | 0.00 | 0.00 | 85 | 1015.6 |
| 20260905052614 | 25 | 100 | 0.0 | 0.0 | 0.00 | 0.00 | 0.00 | 85 | 1015.6 |
| 20260905052104 | 25 | 102 | 0.0 | 0.0 | 0.00 | 0.00 | 0.00 | 84 | 1015.6 |
| 20260905051600 | 25 | 102 | 0.0 | 0.0 | 0.00 | 0.00 | 0.00 | 83 | 1015.5 |
| 20260905051056 | 25 | 95 | 0.0 | 0.0 | 0.00 | 0.00 | 0.00 | 83 | 1015.7 |
| 20260905050551 | 25 | 113 | 0.0 | 0.0 | 0.00 | 0.00 | 0.00 | 83 | 1015.5 |
| 20260905050043 | 25 | 115 | 0.0 | 0.0 | 0.00 | 0.00 | 0.00 | 83 | 1015.5 |
| 20260905045537 | 25 | 115 | 0.0 | 0.0 | 0.00 | 0.00 | 0.00 | 83 | 1015.6 |
| 20260905045032 | 25 | 115 | 0.0 | 0.0 | 0.00 | 0.00 | 0.00 | 83 | 1015.6 |
| 20260905044526 | 25 | 115 | 0.0 | 0.0 | 0.00 | 0.00 | 0.00 | 82 | 1015.6 |
| 20260905044021 | 25 | 115 | 0.0 | 0.0 | 0.00 | 0.00 | 0.00 | 82 | 1015.7 |
| 20260905043520 | 25 | 115 | 0.0 | 0.0 | 0.00 | 0.00 | 0.00 | 82 | 1015.7 |
| 20260905043015 | 25 | 115 | 0.0 | 0.0 | 0.00 | 0.00 | 0.00 | 82 | 1015.7 |
| 20260905042509 | 26 | 115 | 0.0 | 0.0 | 0.00 | 0.00 | 0.00 | 81 | 1015.7 |
| 20260905042004 | 26 | 119 | 0.0 | 0.0 | 0.00 | 0.00 | 0.00 | 81 | 1015.7 |
| 20260905041459 | 26 | 109 | 0.0 | 0.0 | 0.00 | 0.00 | 0.00 | 81 | 1015.7 |
| 20260905040954 | 26 | 137 | 0.0 | 0.0 | 0.00 | 0.00 | 0.00 | 80 | 1015.6 |
| 20260905040448 | 26 | 116 | 0.0 | 0.0 | 0.00 | 0.00 | 0.00 | 79 | 1015.8 |
| 20260905035947 | 26 | 109 | 0.0 | 0.0 | 0.00 | 0.00 | 0.00 | 78 | 1015.6 |
| 20260905035442 | 26 | 127 | 0.0 | 0.0 | 0.00 | 0.00 | 0.00 | 78 | 1015.9 |
| 20260905034939 | 26 | 120 | 0.0 | 0.0 | 0.00 | 0.00 | 0.00 | 78 | 1015.6 |
| 20260905034434 | 26 | 120 | 0.0 | 0.0 | 0.00 | 0.00 | 0.00 | 78 | 1015.5 |
| 20260905033933 | 26 | 113 | 0.0 | 0.0 | 0.00 | 0.00 | 0.00 | 78 | 1015.6 |
| 20260905033428 | 26 | 77 | 0.0 | 0.0 | 0.00 | 0.00 | 0.00 | 78 | 1015.6 |
| 20260905032928 | 26 | 140 | 0.0 | 0.0 | 0.00 | 0.00 | 0.00 | 78 | 1015.5 |
| 20260905032424 | 26 | 150 | 0.0 | 0.0 | 0.00 | 0.00 | 0.00 | 79 | 1015.7 |
| 20260905031919 | 27 | 141 | 0.0 | 0.0 | 0.00 | 0.00 | 0.00 | 78 | 1015.7 |
| 20260905031415 | 27 | 143 | 0.0 | 0.0 | 0.00 | 0.00 | 0.00 | 77 | 1015.6 |
| 20260905030910 | 27 | 155 | 1.6 | 1.6 | 0.00 | 0.00 | 0.00 | 75 | 1015.7 |
| 20260905030405 | 27 | 148 | 1.6 | 1.6 | 0.00 | 0.00 | 0.00 | 74 | 1015.6 |
| 20260905025904 | 27 | 184 | 1.6 | 1.6 | 0.00 | 0.00 | 0.00 | 74 | 1015.6 |
| 20260905025354 | 27 | 130 | 0.0 | 0.0 | 0.00 | 0.00 | 0.00 | 74 | 1015.6 |
| 20260905024850 | 27 | 164 | 0.0 | 0.0 | 0.00 | 0.00 | 0.00 | 74 | 1015.4 |
| 20260905024345 | 27 | 124 | 0.0 | 0.0 | 0.00 | 0.00 | 0.00 | 74 | 1015.4 |
| 20260905023840 | 27 | 130 | 0.0 | 0.0 | 0.00 | 0.00 | 0.00 | 74 | 1015.7 |
| 20260905023335 | 28 | 102 | 0.0 | 0.0 | 0.00 | 0.00 | 0.00 | 73 | 1015.3 |
| 20260905022834 | 28 | 138 | 0.0 | 0.0 | 0.00 | 0.00 | 0.00 | 72 | 1015.3 |
| 20260905022329 | 28 | 148 | 0.0 | 0.0 | 0.00 | 0.00 | 0.00 | 73 | 1015.3 |
| 20260905021825 | 28 | 151 | 0.0 | 0.0 | 0.00 | 0.00 | 0.00 | 73 | 1015.1 |
| 20260905021320 | 28 | 129 | 0.0 | 0.0 | 0.00 | 0.00 | 0.00 | 73 | 1015.3 |
| 20260905020820 | 28 | 132 | 0.0 | 0.0 | 0.00 | 0.00 | 0.00 | 73 | 1015.2 |
| 20260905020315 | 28 | 133 | 0.0 | 0.0 | 0.00 | 0.00 | 0.00 | 72 | 1015.4 |
| 20260905015813 | 28 | 126 | 0.0 | 0.0 | 0.00 | 0.00 | 0.00 | 71 | 1015.3 |
| 20260905015308 | 28 | 128 | 0.0 | 0.0 | 0.00 | 0.00 | 0.00 | 70 | 1015.3 |
| 20260905014807 | 29 | 150 | 1.6 | 1.6 | 0.00 | 0.00 | 0.00 | 71 | 1015.2 |
| 20260905014303 | 29 | 148 | 1.6 | 1.6 | 0.00 | 0.00 | 0.00 | 71 | 1015.1 |
| 20260905013758 | 29 | 134 | 0.0 | 0.0 | 0.00 | 0.00 | 0.00 | 70 | 1015.0 |
| 20260905013254 | 30 | 155 | 0.0 | 0.0 | 0.00 | 0.00 | 0.00 | 68 | 1014.9 |
| 20260905012749 | 30 | 143 | 0.0 | 0.0 | 0.00 | 0.00 | 0.00 | 66 | 1015.1 |
| 20260905012245 | 30 | 105 | 0.0 | 0.0 | 0.00 | 0.00 | 0.00 | 67 | 1014.8 |
| 20260905011736 | 30 | 123 | 0.0 | 0.0 | 0.00 | 0.00 | 0.00 | 68 | 1014.7 |
| 20260905011226 | 30 | 127 | 0.0 | 0.0 | 0.00 | 0.00 | 0.00 | 67 | 1014.8 |
| 20260905010726 | 30 | 112 | 0.0 | 0.0 | 0.00 | 0.00 | 0.00 | 67 | 1014.8 |
| 20260905010221 | 30 | 109 | 0.0 | 0.0 | 0.00 | 0.00 | 0.00 | 65 | 1014.9 |
| 20260905005718 | 30 | 133 | 0.0 | 0.0 | 0.00 | 0.00 | 0.00 | 66 | 1014.7 |
| 20260905005213 | 31 | 132 | 0.0 | 0.0 | 0.00 | 0.00 | 0.00 | 65 | 1014.8 |
| 20260905004707 | 31 | 122 | 0.0 | 0.0 | 0.00 | 0.00 | 0.00 | 64 | 1014.7 |